Location: Ferchesar
(52.6477°N, 12.4298°E)
Time: 21:50:15
(UTC+02:00)

A-11 Canister half - Pass Details

Date: 10 March 2021
Orbit: 1525 x 1683 km, 47.3° (Epoch: 11 April)

Event Time Altitude Azimuth Distance (km) Brightness Sun altitude
Exits shadow 03:32:19 41° 199° (SSW) 2,185 9.4 -27.5°
Maximum altitude 03:35:06 51° 157° (SSE) 1,929 9.3 -27.1°
Drops below altitude 10° 03:44:05 10° 86° (E) 3,737 11.8 -26.0°
Sets 03:47:12 0° 81° (E) 4,706 12.7 -25.6°
